Location: George Washington National Forest Helicopter Landing Site
(38.6463°N, 79.0851°W)
Time: 19:13:47
(UTC-04:00)

Tiros 1 - Pass Details

Date: 28 August 2019
Orbit: 630 x 664 km, 48.4° (Epoch: 18 October)

Event Time Altitude Azimuth Distance (km) Brightness Sun altitude
Rises 22:01:22 0° 222° (SW) 2,905 10.6 -23.7°
Reaches altitude 10° 22:03:43 10° 218° (SW) 1,998 9.7 -24.1°
Enters shadow 22:05:01 19° 213° (SSW) 1,516 9.0 -24.3°
